N1LID Weather Reports


time (UTC)temp
C
wind
direction
speed
KPH
gust
KPH
rain 1hr
cm
rain 24hr
cm
rain mn
cm
humidity
%
barometer
mb
20260502170504 12 33 0.0 0.0 0.00 0.00 0.00 59 1013.6
20260502164003 12 61 0.0 0.0 0.00 0.00 0.00 62 1013.8
20260502163503 12 61 0.0 0.0 0.00 0.00 0.00 62 1013.7
20260502163013 12 59 0.0 0.0 0.00 0.00 0.00 62 1013.7
20260502162505 12 60 0.0 0.0 0.00 0.00 0.00 64 1013.6
20260502162007 12 49 0.0 0.0 0.00 0.00 0.00 62 1013.5
20260502161511 12 64 0.0 0.0 0.00 0.00 0.00 65 1013.6
20260502161005 12 65 0.0 0.0 0.00 0.00 0.00 65 1013.8
20260502160504 12 65 0.0 0.0 0.00 0.00 0.00 65 1013.9
20260502152004 12 262 0.0 0.0 0.00 0.00 0.00 65 1014.2
20260502151508 12 262 0.0 0.0 0.00 0.00 0.00 63 1014.4
20260502151003 12 259 0.0 0.0 0.00 0.00 0.00 64 1014.3
20260502150503 12 279 0.0 0.0 0.00 0.00 0.00 65 1014.3
20260502130503 11 339 0.0 1.6 0.00 0.00 0.00 66 1013.6
20260502123506 10 298 0.0 8.0 0.00 0.00 0.00 69 1013.4
20260502123025 11 319 0.0 0.0 0.00 0.00 0.00 69 1013.5
20260502122506 11 310 0.0 0.0 0.00 0.00 0.00 69 1013.4
20260502122009 11 13 0.0 0.0 0.00 0.00 0.00 69 1013.3
20260502121522 11 13 0.0 0.0 0.00 0.00 0.00 70 1013.3
20260502121008 11 13 0.0 0.0 0.00 0.00 0.00 70 1013.2
20260502120507 11 29 0.0 0.0 0.00 0.00 0.00 70 1013.4
20260502115504 11 303 0.0 0.0 0.00 0.00 0.00 71 1013.6
20260502115003 11 306 0.0 0.0 0.00 0.00 0.00 71 1013.5
20260502114511 11 313 0.0 0.0 0.00 0.00 0.00 72 1013.5
20260502114003 11 313 0.0 0.0 0.00 0.00 0.00 72 1013.5
20260502113503 11 312 0.0 0.0 0.00 0.00 0.00 72 1013.5
20260502113016 11 312 0.0 0.0 0.00 0.00 0.00 71 1013.5
20260502112506 11 313 0.0 0.0 0.00 0.00 0.00 71 1013.5
20260502112007 11 307 0.0 0.0 0.00 0.00 0.00 71 1013.4
20260502111520 11 295 0.0 0.0 0.00 0.00 0.00 71 1013.3
20260502111006 11 287 0.0 0.0 0.00 0.00 0.00 71 1013.2
20260502110506 11 263 0.0 0.0 0.00 0.00 0.00 71 1013.1
20260502110028 11 263 0.0 0.0 0.00 0.00 0.00 71 1013.0
20260502105504 11 263 0.0 0.0 0.00 0.00 0.00 71 1013.0
20260502105003 11 171 0.0 0.0 0.00 0.00 0.00 71 1013.0
20260502104517 11 49 0.0 0.0 0.00 0.00 0.00 71 1013.0
20260502104003 11 49 0.0 0.0 0.00 0.00 0.00 71 1013.0
20260502103502 11 49 0.0 0.0 0.00 0.00 0.00 72 1012.9
20260502103011 11 49 0.0 0.0 0.00 0.00 0.00 71 1012.9
20260502102507 11 50 0.0 0.0 0.00 0.00 0.00 72 1012.8
20260502102006 11 50 0.0 0.0 0.00 0.00 0.00 72 1012.8
20260502101519 11 50 0.0 0.0 0.00 0.00 0.00 72 1012.8
20260502101012 11 51 0.0 0.0 0.00 0.00 0.00 72 1012.7
20260502100506 11 52 0.0 0.0 0.00 0.00 0.00 72 1012.7
20260502091518 11 264 0.0 0.0 0.00 0.00 0.00 77 1012.1
20260502091005 10 238 0.0 0.0 0.00 0.00 0.00 78 1012.1
20260502090505 10 238 0.0 0.0 0.00 0.00 0.00 79 1012.1
20260502071508 10 235 0.0 0.0 0.00 0.00 0.00 82 1011.7
20260502071007 10 235 0.0 0.0 0.00 0.00 0.00 81 1011.6
20260502070503 10 235 0.0 0.0 0.00 0.00 0.00 81 1011.6
20260502070012 10 235 0.0 0.0 0.00 0.00 0.00 81 1011.7
20260502065504 11 235 0.0 0.0 0.00 0.00 0.00 81 1011.7
20260502065008 11 235 0.0 0.0 0.00 0.00 0.00 81 1011.7
20260502064522 11 235 0.0 0.0 0.00 0.00 0.00 80 1011.7
20260502064011 11 235 0.0 0.0 0.00 0.00 0.00 80 1011.7
20260502063503 11 235 0.0 0.0 0.00 0.00 0.00 80 1011.7
20260502063008 11 235 0.0 0.0 0.00 0.00 0.00 80 1011.8
20260502062507 11 235 0.0 0.0 0.00 0.00 0.00 80 1012.0
20260502062004 11 235 0.0 0.0 0.00 0.00 0.00 80 1012.1
20260502061505 11 235 0.0 0.0 0.00 0.00 0.00 80 1012.0
20260502061004 11 235 0.0 0.0 0.00 0.00 0.00 80 1012.2
20260502060503 11 235 0.0 0.0 0.00 0.00 0.00 80 1012.3
20260502060011 11 235 0.0 0.0 0.00 0.00 0.00 79 1012.5
20260502055504 11 235 0.0 0.0 0.00 0.00 0.00 79 1012.6
20260502055003 12 235 0.0 0.0 0.00 0.00 0.00 79 1012.5
20260502054516 12 235 0.0 0.0 0.00 0.00 0.00 79 1012.7
20260502054004 12 234 0.0 0.0 0.00 0.00 0.00 79 1012.7
20260502053503 12 360 0.0 8.0 0.00 0.00 0.00 79 1012.7
20260502053004 12 236 1.6 11.3 0.00 0.00 0.00 79 1012.5
20260502052504 12 219 3.2 12.9 0.00 0.00 0.00 79 1012.3
20260502052004 12 244 1.6 12.9 0.00 0.00 0.00 79 1012.3
20260502051505 12 230 0.0 14.5 0.00 0.00 0.00 79 1012.3
20260502051003 12 245 4.8 14.5 0.00 0.00 0.00 79 1012.2
20260502050504 12 245 3.2 14.5 0.00 0.00 0.00 79 1012.2
20260502050007 12 219 6.4 14.5 0.00 0.00 0.00 79 1012.1
20260502045502 12 251 4.8 12.9 0.00 0.00 0.00 79 1012.1
20260502045009 12 230 6.4 12.9 0.00 0.00 0.00 79 1012.1
20260502044511 12 226 6.4 14.5 0.00 0.00 0.00 79 1012.1
20260502044006 12 250 1.6 14.5 0.00 0.00 0.00 79 1012.2
20260502043505 12 234 3.2 17.7 0.00 0.00 0.00 79 1012.2
20260502043008 12 229 4.8 17.7 0.00 0.00 0.00 79 1012.2
20260502042504 12 248 3.2 12.9 0.00 0.00 0.00 79 1012.1
20260502042004 12 245 1.6 12.9 0.00 0.00 0.00 78 1012.1
20260502041518 12 247 4.8 12.9 0.00 0.00 0.00 78 1012.2
20260502041004 12 360 3.2 11.3 0.00 0.00 0.00 78 1012.1
20260502040504 12 234 4.8 14.5 0.00 0.00 0.00 78 1012.2
20260502040019 12 360 3.2 14.5 0.00 0.00 0.00 78 1012.1
20260502035503 12 248 3.2 12.9 0.00 0.00 0.00 78 1012.2
20260502035004 12 227 1.6 16.1 0.00 0.00 0.00 78 1012.2
20260502034510 12 234 6.4 16.1 0.00 0.00 0.00 78 1012.2
20260502034007 12 360 0.0 12.9 0.00 0.00 0.00 78 1012.3
20260502033502 12 175 4.8 12.9 0.00 0.00 0.00 78 1012.2
20260502033012 12 240 0.0 0.0 0.00 0.00 0.00 77 1012.2
20260502032506 12 259 0.0 0.0 0.00 0.00 0.00 77 1012.1
20260502032003 12 232 0.0 0.0 0.00 0.00 0.00 77 1012.1
20260502031516 12 222 0.0 0.0 0.00 0.00 0.00 76 1012.1
20260502031004 12 254 0.0 0.0 0.00 0.00 0.00 76 1012.1
20260502030508 12 240 0.0 0.0 0.00 0.00 0.00 75 1012.0
20260502030024 12 223 0.0 0.0 0.00 0.00 0.00 75 1011.9
20260502025507 12 261 0.0 0.0 0.00 0.00 0.00 74 1011.9
20260502025007 12 236 0.0 0.0 0.00 0.00 0.00 74 1011.8
20260502024523 12 254 0.0 0.0 0.00 0.00 0.00 74 1011.9
20260502024005 12 249 0.0 0.0 0.00 0.00 0.00 73 1012.1
20260502023504 12 244 0.0 0.0 0.00 0.00 0.00 73 1012.1
20260502023012 12 244 0.0 0.0 0.00 0.00 0.00 73 1012.1
20260502022504 12 244 0.0 0.0 0.00 0.00 0.00 73 1012.1
20260502022006 12 244 0.0 0.0 0.00 0.00 0.00 73 1012.2
20260502021527 12 242 0.0 0.0 0.00 0.00 0.00 73 1012.2
20260502021008 12 242 0.0 0.0 0.00 0.00 0.00 73 1012.2
20260502020504 12 249 0.0 0.0 0.00 0.00 0.00 73 1012.2
20260502020026 12 249 0.0 0.0 0.00 0.00 0.00 73 1012.3
20260502015506 12 249 0.0 12.9 0.00 0.00 0.00 73 1012.3
20260502015006 12 250 0.0 12.9 0.00 0.00 0.00 73 1012.4
20260502014523 12 240 1.6 9.7 0.00 0.00 0.00 73 1012.3
20260502014008 12 244 0.0 8.0 0.00 0.00 0.00 72 1012.2
20260502013502 12 360 0.0 8.0 0.00 0.00 0.00 72 1012.2
20260502013014 12 250 0.0 8.0 0.00 0.00 0.00 72 1012.1
20260502012507 12 250 0.0 8.0 0.00 0.00 0.00 72 1012.0
20260502012006 12 248 0.0 11.3 0.00 0.00 0.00 72 1011.8
20260502011516 12 246 1.6 11.3 0.00 0.00 0.00 72 1011.7
20260502011004 13 234 1.6 11.3 0.00 0.00 0.00 71 1011.6
20260502010511 13 261 0.0 3.2 0.00 0.00 0.00 71 1011.6
20260502010020 13 249 0.0 0.0 0.00 0.00 0.00 71 1011.6
20260502005506 13 254 0.0 0.0 0.00 0.00 0.00 70 1011.5
20260502005006 13 221 0.0 12.9 0.00 0.00 0.00 70 1011.4
20260502004522 13 251 0.0 12.9 0.00 0.00 0.00 69 1011.4
20260502004009 13 231 0.0 14.5 0.00 0.00 0.00 68 1011.4
20260502003509 13 235 0.0 16.1 0.00 0.00 0.00 67 1011.4
20260502003008 13 252 0.0 16.1 0.00 0.00 0.00 66 1011.4
20260502002503 13 257 0.0 12.9 0.00 0.00 0.00 66 1011.6
20260502002004 13 307 0.0 6.4 0.00 0.00 0.00 65 1011.7
20260502001506 13 234 0.0 0.0 0.00 0.00 0.00 65 1011.7
20260502001002 13 234 0.0 0.0 0.00 0.00 0.00 65 1011.7
20260502000503 13 234 0.0 0.0 0.00 0.00 0.00 64 1011.6
20260502000004 14 229 0.0 0.0 0.00 0.00 0.00 63 1011.6
20260501235504 14 241 0.0 6.4 0.00 0.00 0.00 62 1011.5
20260501235003 14 239 0.0 6.4 0.00 0.00 0.00 62 1011.5
20260501234503 14 221 0.0 0.0 0.00 0.00 0.00 61 1011.4
20260501234004 15 217 0.0 0.0 0.00 0.00 0.00 60 1011.4
20260501233504 15 238 0.0 0.0 0.00 0.00 0.00 59 1011.4
20260501233004 15 235 0.0 0.0 0.00 0.00 0.00 59 1011.3
20260501232502 15 281 0.0 6.4 0.00 0.00 0.00 59 1011.2
20260501232004 15 238 0.0 12.9 0.00 0.00 0.00 58 1011.1
20260501231504 15 265 0.0 12.9 0.00 0.00 0.00 57 1011.2
20260501231003 15 247 1.6 11.3 0.00 0.00 0.00 57 1011.2
20260501230504 15 259 0.0 11.3 0.00 0.00 0.00 56 1011.1
20260501230004 15 51 0.0 11.3 0.00 0.00 0.00 56 1011.1
20260501225504 15 265 0.0 11.3 0.00 0.00 0.00 57 1011.0
20260501225002 15 337 0.0 16.1 0.00 0.00 0.00 56 1011.1
20260501224510 15 242 3.2 16.1 0.00 0.00 0.00 55 1011.0
20260501224008 15 211 3.2 16.1 0.00 0.00 0.00 56 1011.1
20260501223503 15 246 4.8 16.1 0.00 0.00 0.00 57 1011.1
20260501223004 15 256 0.0 0.0 0.00 0.00 0.00 57 1011.1
20260501222503 16 268 0.0 0.0 0.00 0.00 0.00 58 1011.1
20260501222003 16 258 0.0 0.0 0.00 0.00 0.00 57 1011.1
20260501221504 16 255 0.0 0.0 0.00 0.00 0.00 57 1011.3
20260501221005 16 273 0.0 1.6 0.00 0.00 0.00 57 1011.3
20260501220503 16 273 0.0 11.3 0.00 0.00 0.00 56 1011.4
20260501220008 16 65 1.6 14.5 0.00 0.00 0.00 55 1011.5
20260501215503 16 245 4.8 14.5 0.00 0.00 0.00 53 1011.5
20260501215006 16 332 0.0 9.7 0.00 0.00 0.00 51 1011.4
20260501214512 16 175 0.0 11.3 0.00 0.00 0.00 51 1011.4
20260501214003 16 260 0.0 11.3 0.00 0.00 0.00 49 1011.5
20260501213507 16 249 0.0 11.3 0.00 0.00 0.00 49 1011.5
20260501213017 16 43 1.6 11.3 0.00 0.00 0.00 48 1011.6
20260501212507 16 179 0.0 9.7 0.00 0.00 0.00 48 1011.6
20260501212007 16 63 1.6 11.3 0.00 0.00 0.00 47 1011.6
20260501211506 16 36 0.0 11.3 0.00 0.00 0.00 50 1011.6
20260501211004 16 135 0.0 9.7 0.00 0.00 0.00 49 1011.5
20260501210502 16 148 1.6 9.7 0.00 0.00 0.00 48 1011.5
20260501210009 17 271 0.0 9.7 0.00 0.00 0.00 50 1011.4
20260501205506 17 168 0.0 11.3 0.00 0.00 0.00 48 1011.5
20260501205003 17 249 1.6 14.5 0.00 0.00 0.00 48 1011.7
20260501204512 16 171 0.0 14.5 0.00 0.00 0.00 47 1011.7
20260501204002 16 211 4.8 16.1 0.00 0.00 0.00 48 1011.7
20260501203504 16 247 1.6 17.7 0.00 0.00 0.00 47 1011.9
20260501203015 16 255 3.2 17.7 0.00 0.00 0.00 47 1011.9
20260501202504 16 234 4.8 14.5 0.00 0.00 0.00 47 1012.0
20260501202009 16 75 4.8 12.9 0.00 0.00 0.00 47 1012.1
20260501201505 16 200 0.0 8.0 0.00 0.00 0.00 48 1012.1
20260501201003 16 242 0.0 11.3 0.00 0.00 0.00 48 1012.1
20260501200508 17 151 0.0 14.5 0.00 0.00 0.00 46 1012.3
20260501200014 17 217 3.2 14.5 0.00 0.00 0.00 47 1012.4
20260501195502 17 11 1.6 12.9 0.00 0.00 0.00 46 1012.4
20260501195002 17 176 0.0 9.7 0.00 0.00 0.00 45 1012.5
20260501194508 17 251 1.6 11.3 0.00 0.00 0.00 44 1012.7
20260501194004 17 65 3.2 11.3 0.00 0.00 0.00 43 1012.7
20260501193503 17 229 1.6 11.3 0.00 0.00 0.00 44 1012.8
20260501193031 17 136 1.6 11.3 0.00 0.00 0.00 43 1012.8
20260501192509 17 55 0.0 16.1 0.00 0.00 0.00 43 1012.9
20260501192008 17 259 0.0 17.7 0.00 0.00 0.00 42 1013.1
20260501191507 17 225 3.2 17.7 0.00 0.00 0.00 42 1013.2
20260501191004 17 254 0.0 0.0 0.00 0.00 0.00 43 1013.2
20260501190508 17 217 0.0 12.9 0.00 0.00 0.00 41 1013.2
20260501190019 17 236 0.0 12.9 0.00 0.00 0.00 46 1013.3
20260501185504 17 348 0.0 6.4 0.00 0.00 0.00 43 1013.4
20260501185006 17 213 0.0 1.6 0.00 0.00 0.00 44 1013.5
20260501184517 17 190 0.0 12.9 0.00 0.00 0.00 43 1013.6
20260501184003 17 248 4.8 12.9 0.00 0.00 0.00 44 1013.8
20260501183503 17 136 0.0 11.3 0.00 0.00 0.00 44 1013.8
20260501183014 17 193 0.0 17.7 0.00 0.00 0.00 45 1013.9
20260501182503 17 196 4.8 17.7 0.00 0.00 0.00 46 1014.0
20260501182008 17 307 0.0 19.3 0.00 0.00 0.00 45 1014.0
20260501181507 17 209 4.8 19.3 0.00 0.00 0.00 46 1014.0
20260501181003 17 248 0.0 14.5 0.00 0.00 0.00 45 1014.1
20260501180504 18 230 1.6 19.3 0.00 0.00 0.00 47 1014.1
20260501180014 18 182 4.8 19.3 0.00 0.00 0.00 45 1014.1
20260501175505 17 244 6.4 17.7 0.00 0.00 0.00 47 1014.0
20260501175008 17 246 0.0 14.5 0.00 0.00 0.00 45 1014.0
20260501174519 17 243 0.0 16.1 0.00 0.00 0.00 45 1014.0
20260501174005 18 215 4.8 16.1 0.00 0.00 0.00 43 1014.0
20260501173509 18 247 0.0 1.6 0.00 0.00 0.00 48 1014.0
20260501173023 18 240 0.0 1.6 0.00 0.00 0.00 46 1014.1